Terminal Aerodrome Forecast
Issued by NWS Sioux Falls, SD

Home | Current Version | Previous Version | Graphics & Text | Print | Product List | Glossary On
Versions: 1 2 3 4 5 6 7 8 9 10 11 12 13 14 15 16 17 18 19 20 21 22 23 24 25 26 27 28 29 30 31 32 33 34 35 36 37 38
000
FTUS43 KFSD 211445 AAA
TAFSUX
TAF AMD
KSUX 211445Z 2115/2212 22006KT 1SM BR OVC003
     FM211600 25005KT 3SM BR BKN005
     FM211800 27008KT P6SM SCT010 BKN090
     FM212300 32006KT P6SM SCT090=

USA.gov is the U.S. government's official web portal to all federal, state and local government web resources and services.